Date String (YYYY-MM-DD hh:mm:ss) UTC,Instrument flags,absolute air pressure of the measurement (hPa),sample flow rate (lpm),inlet stack bypass flow (lpm),air temperature of the measurement (°C),ambient temperature measured by the external sensor (°C),aerosol sample conditioner tube jacket temperature (°C),OPC LED temperature (°C),internal box temperature (°C),relative humidity of the measurement (%),span deviation,mass concentration of particles derived from Lorenz-Mie calculation of OPC scattering (μg/m³),mass concentration of particles derived from Lorenz-Mie calculation of OPC scattering (μg/m³),mass concentration of particles derived from Lorenz-Mie calculation of OPC scattering (μg/m³)
DateTimeUTC,F1_M11,P_M11,Q1_M11,Q2_M11,T1_M11,T2_M11,T3_M11,T4_M11,T5_M11,U1_M11,ZSPAN_M11,X0_M11,X2_M11,X1_M11
2024-03-20 19:00:00,SystemResetWarning,0828.0,5.00,000.00,022.3,021.8,000.0,030.7,024.2,18.9,0000.0,0016.54,0005.85,0004.80
2024-03-20 19:01:00,SystemResetWarning,0828.0,5.00,000.00,022.3,021.8,000.0,030.7,024.2,19.1,0000.0,0016.73,0005.89,0004.79
2024-03-20 19:02:00,SystemResetWarning,0828.0,5.00,000.00,022.4,021.8,000.0,030.7,024.2,19.0,0000.0,0016.71,0005.90,0004.79
2024-03-20 19:03:00,SystemResetWarning,0827.9,4.99,000.00,022.4,021.9,000.0,030.7,024.2,19.4,0000.0,0018.14,0005.85,0004.80
2024-03-20 19:04:00,SystemResetWarning,0827.9,5.00,000.00,022.4,021.9,000.0,030.7,024.2,19.9,0000.0,0017.93,0005.79,0004.80
2024-03-20 19:05:00,SystemResetWarning,0827.9,5.00,000.00,022.4,021.9,000.0,030.7,024.3,20.4,0000.0,0018.35,0005.82,0004.83
2024-03-20 19:06:00,SystemResetWarning,0827.8,5.01,000.00,022.4,021.9,000.0,030.7,024.3,19.8,0000.0,0018.92,0005.88,0004.86
2024-03-20 19:07:00,SystemResetWarning,0827.8,5.00,000.00,022.4,022.0,000.0,030.8,024.3,19.7,0000.0,0018.94,0005.89,0004.88
2024-03-20 19:08:00,SystemResetWarning,0827.8,4.99,000.00,022.5,022.0,000.0,030.8,024.3,19.6,0000.0,0019.04,0005.94,0004.90
2024-03-20 19:09:00,SystemResetWarning,0827.8,4.99,000.00,022.5,022.0,000.0,030.8,024.3,19.7,0000.0,0018.58,0005.95,0004.90
2024-03-20 19:10:00,SystemResetWarning,0827.8,5.00,000.00,022.5,022.0,000.0,030.8,024.3,19.7,0000.0,0018.11,0006.02,0004.93
2024-03-20 19:11:00,SystemResetWarning,0827.8,5.01,000.00,022.5,022.0,000.0,030.8,024.3,19.4,0000.0,0017.70,0006.07,0004.97
2024-03-20 19:12:00,SystemResetWarning,0827.8,5.01,000.00,022.5,021.9,000.0,030.8,024.3,19.4,0000.0,0017.09,0006.07,0005.01
2024-03-20 19:13:00,SystemResetWarning,0827.8,4.99,000.00,022.5,021.9,000.0,030.8,024.3,19.9,0000.0,0016.37,0006.10,0005.06
2024-03-20 19:14:00,SystemResetWarning,0827.8,4.99,000.00,022.5,021.9,000.0,030.8,024.3,19.4,0000.0,0016.01,0006.19,0005.11
2024-03-20 19:15:00,SystemResetWarning,0827.8,5.00,000.00,022.5,022.0,000.0,030.9,024.3,19.3,0000.0,0017.08,0006.26,0005.17
2024-03-20 19:16:00,SystemResetWarning,0827.8,5.00,000.00,022.5,022.0,000.0,030.9,024.4,19.4,0000.0,0016.61,0006.30,0005.19
2024-03-20 19:17:00,SystemResetWarning,0827.8,5.01,000.00,022.6,022.0,000.0,030.9,024.4,19.4,0000.0,0015.21,0006.28,0005.21
2024-03-20 19:18:00,SystemResetWarning,0827.8,5.00,000.00,022.6,022.0,000.0,030.9,024.4,19.7,0000.0,0015.78,0006.30,0005.23
2024-03-20 19:19:00,SystemResetWarning,0827.7,4.99,000.00,022.6,022.1,000.0,030.9,024.4,19.7,0000.0,0015.95,0006.32,0005.26
2024-03-20 19:20:00,SystemResetWarning,0827.8,4.99,000.00,022.6,022.1,000.0,030.9,024.4,19.4,0000.0,0016.21,0006.34,0005.28
2024-03-20 19:21:00,SystemResetWarning,0827.8,5.01,000.00,022.6,022.1,000.0,030.9,024.4,20.1,0000.0,0016.85,0006.32,0005.32
2024-03-20 19:22:00,SystemResetWarning,0827.8,5.01,000.00,022.6,022.1,000.0,030.9,024.4,19.7,0000.0,0017.08,0006.33,0005.36
2024-03-20 19:23:00,SystemResetWarning,0827.8,4.98,000.00,022.6,022.1,000.0,031.0,024.5,20.2,0000.0,0016.51,0006.34,0005.39
2024-03-20 19:24:00,SystemResetWarning,0827.7,5.00,000.00,022.7,022.1,000.0,031.0,024.5,20.0,0000.0,0016.43,0006.32,0005.40
2024-03-20 19:25:00,SystemResetWarning,0827.7,5.01,000.00,022.7,022.1,000.0,031.0,024.5,19.7,0000.0,0016.14,0006.36,0005.43
2024-03-20 19:26:00,SystemResetWarning,0827.7,5.01,000.00,022.7,022.1,000.0,031.0,024.5,20.0,0000.0,0015.23,0006.37,0005.46
2024-03-20 19:27:00,SystemResetWarning,0827.7,4.99,000.00,022.7,022.1,000.0,031.0,024.5,20.2,0000.0,0015.98,0006.42,0005.49
2024-03-20 19:28:00,SystemResetWarning,0827.7,4.99,000.00,022.7,022.1,000.0,031.0,024.5,19.6,0000.0,0016.45,0006.50,0005.53
2024-03-20 19:29:00,SystemResetWarning,0827.7,5.01,000.00,022.7,022.1,000.0,031.0,024.5,19.4,0000.0,0016.42,0006.57,0005.57
2024-03-20 19:30:00,SystemResetWarning,0827.7,5.01,000.00,022.7,022.1,000.0,031.0,024.5,19.4,0000.0,0016.28,0006.61,0005.60
2024-03-20 19:31:00,SystemResetWarning,0827.7,4.99,000.00,022.7,022.2,000.0,031.0,024.5,19.5,0000.0,0016.64,0006.66,0005.63
2024-03-20 19:32:00,SystemResetWarning,0827.7,4.98,000.00,022.7,022.2,000.0,031.1,024.6,19.5,0000.0,0019.48,0006.74,0005.66
2024-03-20 19:33:00,SystemResetWarning,0827.6,5.00,000.00,022.7,022.2,000.0,031.1,024.6,19.4,0000.0,0021.11,0006.78,0005.67
2024-03-20 19:34:00,SystemResetWarning,0827.6,5.00,000.00,022.8,022.2,000.0,031.1,024.6,19.5,0000.0,0021.13,0006.78,0005.67
2024-03-20 19:35:00,SystemResetWarning,0827.6,5.00,000.00,022.8,022.2,000.0,031.1,024.6,19.4,0000.0,0021.28,0006.86,0005.69
2024-03-20 19:36:00,SystemResetWarning,0827.5,5.01,000.00,022.8,022.2,000.0,031.1,024.6,18.8,0000.0,0021.00,0006.84,0005.66
2024-03-20 19:37:00,SystemResetWarning,0827.5,5.01,000.00,022.8,022.2,000.0,031.1,024.6,18.6,0000.0,0019.96,0006.76,0005.63
2024-03-20 19:38:00,SystemResetWarning,0827.5,5.00,000.00,022.8,022.2,000.0,031.1,024.6,18.9,0000.0,0019.97,0006.75,0005.62
2024-03-20 19:39:00,SystemResetWarning,0827.6,4.99,000.00,022.8,022.3,000.0,031.1,024.7,19.3,0000.0,0020.30,0006.76,0005.60
2024-03-20 19:40:00,SystemResetWarning,0827.7,4.99,000.00,022.8,022.3,000.0,031.2,024.7,19.2,0000.0,0020.67,0006.71,0005.60
2024-03-20 19:41:00,SystemResetWarning,0827.5,5.01,000.00,022.8,022.3,000.0,031.2,024.7,19.0,0000.0,0021.03,0006.71,0005.60
2024-03-20 19:42:00,SystemResetWarning,0827.5,5.02,000.00,022.8,022.2,000.0,031.2,024.7,18.8,0000.0,0021.24,0006.70,0005.60
2024-03-20 19:43:00,SystemResetWarning,0827.4,4.99,000.00,022.9,022.2,000.0,031.2,024.7,18.6,0000.0,0018.40,0006.62,0005.60
2024-03-20 19:44:00,SystemResetWarning,0827.4,5.00,000.00,022.9,022.2,000.0,031.2,024.7,18.6,0000.0,0016.09,0006.58,0005.57
2024-03-20 19:45:00,SystemResetWarning,0827.6,4.99,000.00,022.9,022.3,000.0,031.2,024.7,18.4,0000.0,0015.63,0006.57,0005.57
2024-03-20 19:46:00,SystemResetWarning,0827.4,5.00,000.00,022.9,022.2,000.0,031.2,024.7,18.1,0000.0,0015.70,0006.53,0005.56
2024-03-20 19:47:00,SystemResetWarning,0827.4,5.00,000.00,022.9,022.2,000.0,031.2,024.7,18.3,0000.0,0016.04,0006.52,0005.56
2024-03-20 19:48:00,SystemResetWarning,0827.4,5.01,000.00,022.9,022.3,000.0,031.2,024.7,19.1,0000.0,0016.14,0006.57,0005.58
2024-03-20 19:49:00,SystemResetWarning,0827.4,5.00,000.00,022.9,022.3,000.0,031.3,024.7,19.0,0000.0,0015.87,0006.62,0005.64
2024-03-20 19:50:00,SystemResetWarning,0827.4,5.00,000.00,022.9,022.3,000.0,031.3,024.7,19.4,0000.0,0015.75,0006.65,0005.69
2024-03-20 19:51:00,SystemResetWarning,0827.4,5.00,000.00,022.9,022.3,000.0,031.3,024.8,19.1,0000.0,0014.78,0006.71,0005.73
2024-03-20 19:52:00,SystemResetWarning,0827.3,5.00,000.00,022.9,022.3,000.0,031.3,024.8,19.0,0000.0,0014.63,0006.79,0005.77
2024-03-20 19:53:00,SystemResetWarning,0827.3,5.00,000.00,022.9,022.3,000.0,031.3,024.8,19.1,0000.0,0014.65,0006.86,0005.83
2024-03-20 19:54:00,SystemResetWarning,0827.2,5.00,000.00,023.0,022.4,000.0,031.3,024.8,19.4,0000.0,0014.93,0006.96,0005.88
2024-03-20 19:55:00,SystemResetWarning,0827.2,5.00,000.00,023.0,022.4,000.0,031.3,024.8,20.0,0000.0,0015.09,0007.06,0005.97
2024-03-20 19:56:00,SystemResetWarning,0827.2,5.00,000.00,023.0,022.4,000.0,031.3,024.8,20.6,0000.0,0015.85,0007.15,0006.06
2024-03-20 19:57:00,SystemResetWarning,0827.1,5.00,000.00,023.0,022.4,000.0,031.3,024.8,20.6,0000.0,0017.59,0007.22,0006.16
2024-03-20 19:58:00,SystemResetWarning,0827.1,5.00,000.00,023.0,022.5,000.0,031.4,024.9,20.0,0000.0,0017.72,0007.32,0006.27
2024-03-20 19:59:00,SystemResetWarning,0827.1,5.00,000.00,023.0,022.5,000.0,031.4,024.9,20.3,0000.0,0017.90,0007.42,0006.36
